Weather History for Corvallis, OR

Change the Weather History Date:

Wednesday, September 11, 2013

  Actual Average Record
Temperature  
Mean Temperature 72 °F -  
Max Temperature 87 °F 76 °F 93 °F (2008)
Min Temperature 57 °F 50 °F 39 °F (2012)
Cooling Degree Days 7    
Growing Degree Days 22 (Base 50)    
Moisture  
Dew Point 58 °F    
Average Humidity 72    
Maximum Humidity 100    
Minimum Humidity 40    
Precipitation  
Precipitation 0.00 in - - ()
Sea Level Pressure  
Sea Level Pressure 29.89 in    
Wind  
Wind Speed 6 mph (WNW)    
Max Wind Speed 24 mph    
Max Gust Speed 30 mph    
Visibility 10 miles    
Events      
Averages and records for this station are not official NWS values.
T = Trace of Precipitation, MM = Missing Value Source: NWS Daily Summary

Daily Weather History Graph

Daily Weather History Graph

Search for Another Location

Airport:

Trip Planner

Search our weather history database for the weather conditions in past years. The results will help you decide how hot, cold, wet, or windy it might be!

Date:

Astronomy

Sep. 11, 2013 Rise Set
Actual Time 6:47 AM PDT 7:30 PM PDT
Civil Twilight 6:18 AM PDT 7:59 PM PDT
Nautical Twilight 5:43 AM PDT 8:34 PM PDT
Astronomical Twilight 5:07 AM PDT 9:10 PM PDT
Moon 1:37 PM PDT (9/11) 11:16 PM PDT (9/11)
Length of Visible Light 13h 41m
Length of Day
12h 42m
Waxing Crescent, 40% of the Moon is Illuminated
Sep 11
Waxing Crescent
Sep 12
First Quarter
Sep 19
Full
Sep 26
Last Quarter
Oct 4
New

Hourly Weather History & Observations

Time (PDT) Temp. Heat Index Dew Point Humidity Pressure Visibility Wind Dir Wind Speed Gust Speed Precip Events Conditions
12:15 AM 64.4 °F - 60.8 °F 88% 29.81 in 10.0 mi SW 3.5 mph - N/A   Clear
12:35 AM 64.4 °F - 60.8 °F 88% 29.81 in 10.0 mi Calm Calm - N/A   Clear
12:55 AM 62.6 °F - 60.8 °F 94% 29.81 in 10.0 mi Calm Calm - N/A   Clear
1:15 AM 62.6 °F - 60.8 °F 94% 29.81 in 10.0 mi Calm Calm - N/A   Clear
1:35 AM 62.6 °F - 59.0 °F 88% 29.82 in 10.0 mi Calm Calm - N/A   Clear
1:55 AM 62.6 °F - 60.8 °F 94% 29.82 in 10.0 mi WSW 4.6 mph - N/A   Clear
2:15 AM 60.8 °F - 59.0 °F 94% 29.82 in 10.0 mi Calm Calm - N/A   Clear
2:35 AM 60.8 °F - 59.0 °F 94% 29.83 in 10.0 mi Calm Calm - N/A   Clear
2:55 AM 60.8 °F - 59.0 °F 94% 29.83 in 10.0 mi Calm Calm - N/A   Clear
3:15 AM 60.8 °F - 57.2 °F 88% 29.83 in 10.0 mi Calm Calm - N/A   Clear
3:35 AM 60.8 °F - 57.2 °F 88% 29.84 in 10.0 mi Calm Calm - N/A   Clear
3:55 AM 60.8 °F - 57.2 °F 88% 29.83 in 10.0 mi Calm Calm - N/A   Clear
4:15 AM 59.0 °F - 57.2 °F 94% 29.84 in 10.0 mi Calm Calm - N/A   Clear
4:35 AM 57.2 °F - 55.4 °F 94% 29.84 in 10.0 mi WSW 3.5 mph - N/A   Clear
4:55 AM 57.2 °F - 55.4 °F 94% 29.85 in 10.0 mi South 4.6 mph - N/A   Clear
5:15 AM 59.0 °F - 55.4 °F 88% 29.85 in 10.0 mi South 3.5 mph - N/A   Clear
5:35 AM 57.2 °F - 55.4 °F 94% 29.86 in 10.0 mi Calm Calm - N/A   Clear
5:55 AM 57.2 °F - 57.2 °F 100% 29.86 in 10.0 mi Calm Calm - N/A   Clear
6:15 AM 59.0 °F - 57.2 °F 94% 29.87 in 10.0 mi West 3.5 mph - N/A   Clear
6:35 AM 60.8 °F - 57.2 °F 88% 29.88 in 10.0 mi West 4.6 mph - N/A   Clear
6:55 AM 60.8 °F - 57.2 °F 88% 29.88 in 10.0 mi West 3.5 mph - N/A   Clear
7:15 AM 57.2 °F - 55.4 °F 94% 29.89 in 10.0 mi SW 4.6 mph - N/A   Clear
7:35 AM 60.8 °F - 57.2 °F 88% 29.90 in 10.0 mi SW 3.5 mph - N/A   Clear
7:55 AM 62.6 °F - 57.2 °F 82% 29.90 in 10.0 mi WSW 3.5 mph - N/A   Clear
8:15 AM 64.4 °F - 59.0 °F 83% 29.91 in 10.0 mi West 4.6 mph - N/A   Clear
8:35 AM 64.4 °F - 59.0 °F 83% 29.91 in 10.0 mi WNW 6.9 mph - N/A   Clear
8:55 AM 66.2 °F - 59.0 °F 78% 29.91 in 10.0 mi WNW 8.1 mph - N/A   Clear
9:15 AM 66.2 °F - 59.0 °F 78% 29.92 in 10.0 mi WNW 6.9 mph - N/A   Clear
9:35 AM 68.0 °F - 59.0 °F 73% 29.92 in 10.0 mi WNW 6.9 mph - N/A   Clear
9:55 AM 69.8 °F - 59.0 °F 68% 29.93 in 10.0 mi West 6.9 mph - N/A   Clear
10:15 AM 71.6 °F - 59.0 °F 64% 29.93 in 10.0 mi West 6.9 mph - N/A   Clear
10:35 AM 71.6 °F - 59.0 °F 64% 29.93 in 10.0 mi WNW 8.1 mph - N/A   Clear
10:55 AM 73.4 °F - 60.8 °F 65% 29.92 in 10.0 mi WNW 5.8 mph - N/A   Clear
11:15 AM 75.2 °F - 60.8 °F 61% 29.92 in 10.0 mi West 3.5 mph - N/A   Clear
11:35 AM 78.8 °F - 60.8 °F 54% 29.92 in 10.0 mi West 4.6 mph - N/A   Clear
11:55 AM 78.8 °F - 60.8 °F 54% 29.91 in 10.0 mi WNW 5.8 mph - N/A   Clear
12:15 PM 80.6 °F 81.5 °F 60.8 °F 51% 29.91 in 10.0 mi Calm Calm - N/A   Clear
12:35 PM 80.6 °F 81.5 °F 60.8 °F 51% 29.91 in 10.0 mi West 3.5 mph - N/A   Clear
12:55 PM 84.2 °F 84.4 °F 60.8 °F 45% 29.90 in 10.0 mi WNW 4.6 mph - N/A   Clear
1:15 PM 84.2 °F 84.4 °F 60.8 °F 45% 29.90 in 10.0 mi NW 6.9 mph - N/A   Clear
1:35 PM 84.2 °F 84.4 °F 60.8 °F 45% 29.90 in 10.0 mi NW 6.9 mph - N/A   Clear
1:55 PM 86.0 °F 86.1 °F 60.8 °F 43% 29.90 in 10.0 mi NW 13.8 mph - N/A   Clear
2:15 PM 86.0 °F 86.1 °F 60.8 °F 43% 29.89 in 10.0 mi NNW 13.8 mph - N/A   Clear
2:35 PM 86.0 °F 86.1 °F 60.8 °F 43% 29.89 in 10.0 mi NNW 16.1 mph 19.6 mph N/A   Clear
2:55 PM 87.8 °F 87.6 °F 60.8 °F 40% 29.89 in 10.0 mi NNW 16.1 mph - N/A   Clear
3:15 PM 86.0 °F 86.1 °F 60.8 °F 43% 29.89 in 10.0 mi NW 17.3 mph - N/A   Clear
3:35 PM 86.0 °F 86.1 °F 60.8 °F 43% 29.88 in 10.0 mi NW 20.7 mph - N/A   Clear
3:55 PM 84.2 °F 84.4 °F 60.8 °F 45% 29.88 in 10.0 mi NW 16.1 mph 20.7 mph N/A   Clear
4:15 PM 82.4 °F 82.9 °F 60.8 °F 48% 29.88 in 10.0 mi NW 19.6 mph - N/A   Clear
4:35 PM 82.4 °F 82.9 °F 60.8 °F 48% 29.89 in 10.0 mi NW 16.1 mph 21.9 mph N/A   Clear
4:55 PM 82.4 °F 82.9 °F 60.8 °F 48% 29.88 in 10.0 mi NW 18.4 mph 23.0 mph N/A   Clear
5:15 PM 80.6 °F 81.5 °F 60.8 °F 51% 29.88 in 10.0 mi NW 19.6 mph 24.2 mph N/A   Clear
5:35 PM 78.8 °F - 60.8 °F 54% 29.89 in 10.0 mi NW 20.7 mph 25.3 mph N/A   Clear
5:55 PM 77.0 °F - 59.0 °F 54% 29.89 in 10.0 mi NW 19.6 mph - N/A   Clear
6:15 PM 75.2 °F - 57.2 °F 53% 29.89 in 10.0 mi NW 21.9 mph 28.8 mph N/A   Clear
6:35 PM 73.4 °F - 57.2 °F 57% 29.89 in 10.0 mi NW 24.2 mph 29.9 mph N/A   Clear
6:55 PM 71.6 °F - 57.2 °F 60% 29.89 in 10.0 mi NW 24.2 mph 27.6 mph N/A   Clear
7:15 PM 69.8 °F - 57.2 °F 64% 29.90 in 10.0 mi WNW 18.4 mph 27.6 mph N/A   Clear
7:35 PM 66.2 °F - 57.2 °F 73% 29.90 in 10.0 mi NW 20.7 mph - N/A   Clear
7:55 PM 64.4 °F - 55.4 °F 73% 29.90 in 10.0 mi NW 20.7 mph 26.5 mph N/A   Clear
8:15 PM 64.4 °F - 55.4 °F 73% 29.92 in 10.0 mi NW 20.7 mph 25.3 mph N/A   Clear
8:35 PM 62.6 °F - 55.4 °F 77% 29.93 in 10.0 mi WNW 17.3 mph 21.9 mph N/A   Clear
8:55 PM 62.6 °F - 55.4 °F 77% 29.94 in 10.0 mi WNW 18.4 mph 23.0 mph N/A   Clear
9:15 PM 62.6 °F - 55.4 °F 77% 29.94 in 10.0 mi NW 19.6 mph 25.3 mph N/A   Clear
9:35 PM 60.8 °F - 55.4 °F 82% 29.95 in 10.0 mi NW 16.1 mph - N/A   Clear
9:55 PM 60.8 °F - 55.4 °F 82% 29.95 in 10.0 mi NW 17.3 mph - N/A   Clear
10:15 PM 60.8 °F - 55.4 °F 82% 29.96 in 10.0 mi NW 19.6 mph 23.0 mph N/A   Clear
10:35 PM 60.8 °F - 55.4 °F 82% 29.97 in 10.0 mi NW 17.3 mph - N/A   Clear
10:55 PM 60.8 °F - 55.4 °F 82% 29.97 in 10.0 mi WNW 13.8 mph - N/A   Clear
11:15 PM 59.0 °F - 55.4 °F 88% 29.98 in 10.0 mi NW 13.8 mph - N/A   Clear
11:35 PM 59.0 °F - 55.4 °F 88% 29.98 in 10.0 mi NW 13.8 mph - N/A   Clear
11:55 PM 59.0 °F - 55.4 °F 88% 29.98 in 10.0 mi NW 13.8 mph - N/A   Clear